CAPE
0 0 0 0 0 0 0 0 0 662 742 788 774 751 488 732 575 473 214 192 111 52 1 120 272 161 271 228 440 267 166 192 30 10 27 18 112 62 121 192 452 62 73 58
0 0 0 0 0 0 0 0 0 144 807 620 510 554 616 717 677 480 304 110 127 100 55 9 34 125 300 338 324 139 83 0 34 27 49 49 71 84 57 28 143 148 169 88
0 0 0 0 0 0 0 0 0 0 34 780 322 301 879 790 733 642 262 151 154 235 105 140 80 86 339 367 250 225 105 11 12 26 35 45 64 101 134 124 138 252 414 333
0 0 0 0 0 0 0 0 0 0 0 1 8 0 671 955 834 806 312 434 377 236 92 175 204 87 339 335 416 295 144 35 0 5 0 25 153 145 105 113 415 202 567 425
0 0 0 0 0 0 0 0 0 0 0 0 0 0 0 795 973 846 311 95 444 283 248 259 229 212 259 403 469 232 93 40 0 0 0 14 149 68 16 45 365 529 838 771
0 0 0 0 0 0 0 0 0 0 0 0 0 0 0 78 320 260 103 363 537 542 537 358 217 234 235 695 510 261 136 196 19 6 0 0 5 0 24 29 249 592 730 980
0 0 0 0 0 0 0 0 0 0 0 0 0 0 4 2 44 69 101 230 517 633 730 401 280 296 338 665 668 377 267 302 468 263 217 149 200 30 417 419 411 341 691 1087
0 0 0 0 0 0 0 0 0 0 0 0 0 0 0 0 14 99 112 102 129 316 578 514 503 392 472 505 772 546 359 294 832 613 274 541 734 623 534 419 701 374 609 885
0 0 0 0 0 0 0 0 0 0 0 0 0 0 10 3 78 50 99 145 379 207 418 422 489 493 642 518 881 869 540 411 413 946 616 611 691 639 589 459 264 544 924 1184
0 0 0 0 0 0 0 0 0 0 0 0 0 0 21 65 116 163 208 209 375 0 199 396 557 472 689 688 826 907 894 859 678 1075 770 674 571 732 769 878 98 653 589 873
0 0 0 0 0 1 0 0 0 0 0 0 0 0 28 84 85 228 261 236 179 71 27 572 564 671 739 780 775 896 1013 1093 1007 1119 1102 1126 988 994 908 1003 1102 1045 566 667
0 0 0 0 0 0 4 0 0 0 0 0 0 0 0 138 199 387 484 374 112 297 521 747 625 758 836 897 894 961 1034 1201 1211 1237 1264 1361 1454 1321 1082 950 975 899 668 594
5 0 0 0 7 2 0 0 0 0 0 0 0 0 43 229 160 285 286 382 191 601 943 775 694 653 779 1067 1017 1156 1158 1160 1210 1273 1253 1104 1216 1204 1295 1211 1292 1066 810 693
56 94 68 41 63 81 45 8 0 0 0 0 0 0 0 85 142 268 343 467 170 117 676 736 734 648 676 1160 1160 1300 1394 1292 1256 1265 1326 1242 1221 1212 1233 1266 1421 1487 1240 1314
81 153 169 151 153 185 132 87 55 7 0 0 0 0 1 0 195 260 528 406 130 269 315 286 613 678 753 1330 1253 1472 1539 1497 1423 1344 1600 1521 1534 1442 1499 1472 1467 1427 1385 1544
222 91 55 171 206 152 188 159 103 90 31 1 0 8 0 1 125 380 615 433 99 239 727 651 688 716 861 1234 1449 1658 1664 1746 1720 1598 1503 1762 1792 1681 1674 1475 1481 1414 1404 1340
0 30 109 20 35 75 161 196 184 197 123 66 18 15 8 0 50 473 792 342 313 889 1023 917 824 791 925 994 1283 1697 1732 1776 1806 1824 1661 1659 1888 1801 1594 1392 1316 1200 1085 1122
0 0 0 0 0 1 37 253 277 209 208 453 357 311 389 265 210 329 714 540 1113 1435 1373 1133 1125 1036 919 1023 1257 1693 1792 1772 1727 1843 1897 1908 1803 1915 1633 1537 1496 1386 1537 1612
0 0 0 0 0 0 0 79 133 96 154 980 868 979 397 356 531 733 816 1040 1328 1488 1624 1389 1255 1231 1347 1269 1325 1791 1804 1718 1677 1671 1933 2061 1870 1742 1853 1734 1669 1721 1676 1552
0 0 0 0 0 0 12 351 622 76 0 686 722 652 686 527 380 997 1006 882 1035 1387 1685 1740 1767 1962 1719 1777 1736 1807 1944 1954 1857 1648 1940 2246 2120 1986 1911 1903 2059 1905 1649 1288
0 8 17 3 0 0 169 293 536 92 36 543 530 589 626 588 341 323 589 815 559 785 1511 2001 2020 2133 2015 2099 1884 1880 2043 2039 1966 1898 2125 2454 2418 2254 2222 2095 1913 1645 1106 721
4 8 49 20 10 1 178 476 375 406 533 537 380 596 882 538 349 254 606 827 1268 1476 1860 2019 2083 2155 2213 2151 2045 1999 1973 1967 2012 2162 2362 2454 2467 2432 2332 2052 1297 1024 968 879
23 30 152 81 80 71 125 621 593 344 220 221 238 409 608 725 377 198 350 468 1592 1824 2088 2233 2265 2053 2121 2199 2159 2201 2183 2373 2427 2484 2542 2447 2371 2339 1786 1242 962 485 331 248
0 58 86 16 13 7 13 285 748 421 74 175 126 156 339 537 479 212 99 152 633 944 1642 2432 2522 2475 2518 2425 2403 2306 2635 2753 2659 2574 2478 2312 2235 1832 1365 949 714 529 459 530
0 43 80 17 13 0 9 364 547 402 220 198 64 146 98 220 433 350 381 237 366 855 1437 2287 2625 2730 2796 2783 2657 2729 2861 2698 2608 2489 2253 1962 1376 960 1147 879 726 709 824 758
0 0 0 0 13 33 111 447 501 419 262 117 45 40 77 76 300 401 145 314 36 97 929 1147 2212 2629 2722 2793 2829 2883 2590 2455 2299 1946 1365 1078 1209 1242 1273 1230 1195 863 679 567
CIN
0 0 0 0 0 0 0 0 0 -94 -114 -85 -92 -83 -86 -130 -183 -110 -86 -74 -222 -240 -18 -63 -87 -101 -122 -124 -92 -78 -120 -84 -94 -69 -32 -47 -25 -36 -43 -35 -26 -88 -78 -297
0 0 0 0 0 0 0 0 0 -50 -71 -66 -104 -118 -134 -78 -128 -145 -124 -152 -120 -85 -98 -37 -74 -161 -137 -121 -89 -146 -136 0 -98 -60 -34 -36 -15 -18 -10 -33 -47 -17 -46 -281
0 0 0 0 0 0 0 0 0 0 -34 -63 -19 -85 -165 -192 -56 -58 -208 -176 -110 -55 -86 -62 -98 -149 -162 -133 -156 -160 -167 -66 -127 -66 -43 -42 -66 -25 -19 -55 -4 -15 -28 -57
0 0 0 0 0 0 0 0 0 0 0 0 -3 0 -133 -141 -127 -87 -208 -152 -85 -104 -97 -97 -164 -116 -181 -167 -190 -157 -181 -149 0 -115 0 -55 -36 -22 -31 -25 -42 -23 -21 -52
0 0 0 0 0 0 0 0 0 0 0 0 0 0 0 -149 -118 -104 -93 -385 -109 -142 -100 -74 -193 -135 -196 -222 -231 -189 -212 -198 0 0 0 -72 -30 -52 -33 -22 -30 -46 -37 -31
0 0 0 0 0 0 0 0 0 0 0 0 0 0 0 -215 -200 -109 -120 -289 -129 -121 -99 -82 -62 -108 -137 -192 -222 -220 -218 -164 -101 -66 0 0 -60 -9 -28 -46 -35 -30 -41 -34
0 0 0 0 0 0 0 0 0 0 0 0 0 0 -50 -73 -247 -229 -41 -34 -166 -120 -112 -90 -99 -136 -206 -194 -207 -217 -213 -161 -124 -137 -106 -84 -32 -25 -25 -33 -51 -26 -35 -41
0 0 0 0 0 0 0 0 0 0 0 0 0 -3 0 0 -268 -207 -26 -48 -47 -150 -81 -90 -57 -41 -220 -208 -205 -194 -76 -165 -75 -64 -135 -83 -54 -62 -41 -27 -33 -74 -36 -22
0 0 0 0 0 0 0 0 0 0 0 0 0 0 -63 -5 -131 -141 -24 -183 -425 -38 -113 -124 -95 -61 -208 -169 -214 -194 -212 -187 -176 -89 -62 -72 -60 -66 -70 -44 -33 -61 -37 -102
0 0 0 0 0 0 0 0 0 0 0 0 0 0 -11 -15 -108 -83 -100 -137 -67 -9 -128 -105 -149 -72 -211 -176 -247 -169 -193 -192 -172 -104 -113 -102 -122 -107 -74 -47 -28 -66 -30 -41
-1 0 0 0 0 -11 0 0 0 0 0 0 0 0 -18 -15 -79 -129 -63 -78 -78 -189 -112 -96 -158 -93 -200 -200 -140 -183 -179 -171 -140 -111 -96 -80 -76 -66 -58 -60 -53 -39 -19 -19
0 0 0 0 0 0 -3 0 0 0 0 0 0 0 0 -51 -77 -123 -168 -180 -448 -86 -111 -75 -53 -105 -177 -217 -189 -251 -210 -184 -164 -134 -105 -82 -61 -50 -60 -70 -78 -45 -29 -32
-58 0 0 -2 -36 -25 -4 0 0 0 0 0 0 0 -79 -49 -221 -275 -189 -15 -72 -172 -55 -50 -20 -77 -155 -234 -214 -230 -224 -203 -163 -136 -123 -115 -103 -87 -73 -84 -63 -52 -47 -107
-111 -104 -130 -197 -133 -187 -185 -88 0 0 0 0 0 0 0 -194 -357 -193 -48 -12 -8 -183 -143 -148 -20 -12 -140 -199 -230 -224 -209 -181 -168 -148 -135 -123 -128 -121 -93 -84 -57 -39 -58 -43
-80 -84 -106 -130 -138 -172 -207 -212 -205 -118 0 0 0 0 -21 -26 -180 -97 -33 -15 -36 -39 -241 -166 -187 -31 -158 -188 -228 -207 -181 -182 -152 -150 -135 -110 -92 -98 -80 -67 -36 -28 -38 -29
-45 -77 -100 -83 -84 -112 -167 -189 -193 -159 -12 -5 0 -22 0 -21 -274 -81 -24 -17 -18 -333 -220 -133 -237 -54 -143 -214 -225 -192 -165 -162 -137 -118 -114 -90 -56 -61 -45 -48 -29 -27 -35 -37
0 -43 -60 -119 -200 -117 -164 -118 -117 -129 -109 -87 -100 -138 -170 0 -238 -56 -23 -26 -302 -200 -189 -267 -217 -271 -183 -155 -174 -185 -144 -139 -106 -73 -53 -51 -57 -40 -40 -58 -39 -34 -30 -36
0 0 0 0 0 -39 -276 -75 -45 -63 -86 -171 -198 -95 -130 -139 -140 -242 -19 -305 -172 -150 -127 -167 -248 -223 -131 -86 -253 -190 -123 -86 -77 -52 -38 -85 -70 -46 -55 -43 -37 -24 -31 -20
0 0 0 0 0 0 0 -157 -87 -87 -183 -202 -263 -241 -194 -152 -184 -144 -20 -106 -65 -144 -114 -103 -86 -263 -219 -218 -194 -216 -159 -73 -46 -44 -104 -48 -30 -67 -43 -40 -43 -27 -20 -31
0 0 0 0 0 0 -9 -116 -85 -115 0 -135 -80 -119 -114 -168 -82 -29 -31 -18 -58 -57 -142 -244 -251 -201 -179 -193 -190 -161 -97 -68 -66 -79 -87 -55 -54 -49 -49 -35 -21 -8 -8 -10
0 -44 -45 -12 -1 0 -146 -132 -55 -39 -79 -159 -59 -101 -96 -74 -59 -55 -117 -29 -204 -322 -277 -150 -160 -163 -108 -124 -111 -105 -69 -57 -51 -110 -73 -30 -37 -23 -21 -11 -5 -10 -21 -41
-1 -22 -63 -44 -14 -3 -112 -112 -32 -108 -63 -72 -64 -57 -49 -102 -28 -214 -166 -113 -117 -100 -170 -124 -94 -88 -86 -94 -65 -63 -101 -111 -107 -80 -40 -21 -13 -14 -9 -8 -8 -25 -25 -24
-8 -20 -2 -26 -53 -45 -95 -45 -98 -166 -170 -124 -41 -46 -42 -96 -119 -450 -97 -270 -52 -53 -80 -186 -217 -163 -103 -86 -109 -123 -98 -67 -61 -29 -8 -8 -8 -5 -5 -29 -32 -56 -87 -79
0 -19 -12 -21 -83 -28 -24 -105 -55 -119 -212 -199 -80 -19 -49 -61 -92 -219 -47 -70 -50 -115 -150 -127 -146 -154 -146 -121 -120 -120 -93 -47 -32 -24 -14 -9 -5 -3 -15 -38 -67 -77 -64 -36
0 -8 -8 -30 -74 -22 -23 -128 -127 -110 -118 -187 -153 -30 -18 -43 -112 -154 -49 -56 -106 -46 -87 -65 -82 -105 -115 -101 -85 -64 -49 -38 -30 -15 -6 -4 -27 -90 -45 -35 -47 -50 -30 -18
0 0 0 0 -40 -61 -79 -126 -117 -116 -160 -167 -166 -41 -17 -11 -57 -101 -95 -48 -46 -59 -42 -68 -44 -90 -81 -102 -62 -58 -48 -38 -25 -25 -53 -103 -84 -45 -26 -20 -16 -18 -22 -25
Wind_Speed
nan nan nan nan nan nan nan nan nan 20 25 29 26 21 20 24 25 23 19 25 24 nan nan 11 14 10 10 7 7 9 9 8 nan nan nan nan 15 nan 15 11 10 nan nan nan
nan nan nan nan nan nan nan nan nan 8 24 28 24 22 15 30 23 24 20 19 26 14 nan nan nan 12 10 8 7 7 nan nan nan nan nan nan nan nan nan nan 9 10 5 nan
nan nan nan nan nan nan nan nan nan nan nan 26 25 22 10 11 4 13 16 12 15 24 17 15 nan nan 9 8 8 8 8 nan nan nan nan nan nan 15 13 13 11 7 2 4
nan nan nan nan nan nan nan nan nan nan nan nan nan nan 10 17 22 18 14 7 14 16 nan 11 16 nan 13 8 7 7 8 nan nan nan nan nan 5 5 8 10 7 3 2 3
nan nan nan nan nan nan nan nan nan nan nan nan nan nan nan 13 26 32 22 nan 14 14 16 9 15 13 13 14 10 7 nan nan nan nan nan nan 4 nan nan nan 5 3 4 6
nan nan nan nan nan nan nan nan nan nan nan nan nan nan nan nan 32 16 19 12 12 14 15 13 7 15 9 11 11 6 7 4 nan nan nan nan nan nan nan nan 7 12 7 9
nan nan nan nan nan nan nan nan nan nan nan nan nan nan nan nan nan nan 28 21 20 8 10 13 14 14 9 12 12 7 7 3 1 4 1 1 2 nan 0 3 6 5 10 10
nan nan nan nan nan nan nan nan nan nan nan nan nan nan nan nan nan nan 23 17 10 7 1 8 11 6 10 10 12 11 5 5 4 4 4 2 5 5 5 4 10 7 8 9
nan nan nan nan nan nan nan nan nan nan nan nan nan nan nan nan nan nan nan 30 25 25 3 4 8 12 12 9 9 12 7 3 1 4 6 5 5 6 5 6 7 13 11 11
nan nan nan nan nan nan nan nan nan nan nan nan nan nan nan nan 13 15 31 29 28 nan 17 9 10 8 16 12 13 9 8 10 4 5 4 5 7 6 5 7 nan 7 10 14
nan nan nan nan nan nan nan nan nan nan nan nan nan nan nan nan nan 33 34 39 36 nan nan 14 11 9 14 17 15 11 10 10 8 8 7 8 9 7 7 7 6 8 7 6
nan nan nan nan nan nan nan nan nan nan nan nan nan nan nan 20 22 30 37 42 28 14 19 23 24 20 21 19 15 16 15 15 11 11 11 11 13 11 8 7 4 6 3 3
nan nan nan nan nan nan nan nan nan nan nan nan nan nan nan 21 21 16 35 32 27 17 18 18 17 17 20 16 14 17 17 15 13 12 18 15 14 15 9 7 5 6 4 5
nan nan nan nan nan nan nan nan nan nan nan nan nan nan nan nan 19 17 24 27 26 25 17 18 21 18 13 13 11 15 18 13 13 13 13 15 14 13 12 9 8 8 7 6
nan 51 52 44 36 40 39 nan nan nan nan nan nan nan nan nan 19 25 28 29 18 17 17 23 23 21 12 11 12 15 15 12 15 16 15 14 17 16 16 12 9 10 8 8
40 nan nan 48 50 50 37 39 34 nan nan nan nan nan nan nan 28 22 23 31 nan 21 15 23 21 20 19 14 13 8 11 11 14 16 15 14 17 17 15 15 9 10 7 11
nan nan 46 nan nan nan 36 43 51 45 45 nan nan nan nan nan nan 10 23 27 25 26 30 25 11 17 16 14 12 8 4 8 8 12 12 11 13 16 20 22 16 12 12 11
nan nan nan nan nan nan nan 45 45 51 55 63 47 39 37 33 29 27 16 28 31 29 16 11 19 12 9 11 10 8 5 5 7 10 10 8 7 11 17 20 20 15 16 9
nan nan nan nan nan nan nan nan 44 nan 46 53 63 52 44 42 40 35 27 25 24 31 27 32 31 22 12 14 13 9 6 6 5 4 5 4 2 3 5 7 11 14 12 11
nan nan nan nan nan nan nan 49 45 nan nan 48 56 61 52 48 40 26 26 18 16 30 31 29 26 30 17 14 15 13 11 10 7 7 6 6 6 6 6 5 5 7 8 8
nan nan nan nan nan nan 46 43 49 nan nan 47 54 60 54 52 40 37 26 17 25 23 28 37 21 31 19 18 16 15 12 7 8 9 9 8 8 8 8 9 10 10 9 10
nan nan nan nan nan nan 45 43 45 43 40 45 51 48 59 41 33 49 30 31 31 16 32 29 29 22 26 18 18 16 15 15 15 14 12 11 12 13 13 12 13 12 12 12
nan nan 38 nan nan nan 32 30 30 31 30 45 53 48 53 58 41 47 36 44 25 33 32 32 32 30 25 19 17 15 12 17 18 19 16 16 17 17 16 17 15 15 15 16
nan nan nan nan nan nan nan 25 31 22 nan 38 54 54 52 53 54 48 nan 33 25 22 27 19 40 28 25 24 21 22 19 18 20 20 20 21 22 20 18 17 18 18 19 18
nan nan nan nan nan nan nan 23 21 27 26 35 nan 54 nan 39 49 41 34 28 28 29 36 26 22 26 27 26 21 24 21 19 18 18 17 17 18 18 16 17 17 15 14 18
nan nan nan nan nan nan 16 11 22 11 22 33 nan nan nan nan 39 40 23 15 nan nan 33 25 24 21 25 29 25 22 20 21 18 14 12 13 15 14 12 11 11 19 17 18
Wind_Direction
nan nan nan nan nan nan nan nan nan 328 319 342 6 20 17 7 12 3 340 346 326 nan nan 7 330 349 336 329 306 298 294 309 nan nan nan nan 203 nan 200 212 238 nan nan nan
nan nan nan nan nan nan nan nan nan 1 332 342 344 28 6 5 9 16 2 354 356 4 nan nan nan 320 344 324 322 308 nan nan nan nan nan nan nan nan nan nan 218 262 309 nan
nan nan nan nan nan nan nan nan nan nan nan 318 311 314 320 319 348 33 28 356 359 0 9 328 nan nan 326 332 356 341 318 nan nan nan nan nan nan 197 200 204 215 202 176 62
nan nan nan nan nan nan nan nan nan nan nan nan nan nan 309 345 9 4 44 65 16 1 nan 336 316 nan 334 345 16 331 321 nan nan nan nan nan 167 146 131 185 162 170 183 242
nan nan nan nan nan nan nan nan nan nan nan nan nan nan nan 350 60 38 23 nan 31 2 359 29 346 359 342 349 10 340 nan nan nan nan nan nan 192 nan nan nan 169 165 188 158
nan nan nan nan nan nan nan nan nan nan nan nan nan nan nan nan 38 27 28 38 12 352 349 0 316 309 335 341 347 340 316 351 nan nan nan nan nan nan nan nan 172 148 185 174
nan nan nan nan nan nan nan nan nan nan nan nan nan nan nan nan nan nan 33 17 38 359 346 349 336 311 316 330 331 351 317 268 234 318 44 234 287 nan 267 200 161 163 172 193
nan nan nan nan nan nan nan nan nan nan nan nan nan nan nan nan nan nan 6 309 299 19 186 348 345 306 327 324 320 352 323 293 236 276 302 240 272 244 219 231 193 185 196 181
nan nan nan nan nan nan nan nan nan nan nan nan nan nan nan nan nan nan nan 343 342 336 246 295 360 347 355 311 311 334 338 276 259 291 265 272 251 265 240 228 190 193 181 195
nan nan nan nan nan nan nan nan nan nan nan nan nan nan nan nan 329 349 339 350 1 nan 352 308 344 343 350 333 290 296 312 289 288 276 275 251 263 264 246 252 nan 216 209 217
nan nan nan nan nan nan nan nan nan nan nan nan nan nan nan nan nan 333 344 345 359 nan nan 348 334 340 357 315 300 281 276 253 257 271 248 244 240 240 240 243 221 219 212 225
nan nan nan nan nan nan nan nan nan nan nan nan nan nan nan 314 336 331 334 340 339 344 336 338 342 344 340 323 302 292 273 263 267 274 264 254 248 240 242 249 257 250 206 242
nan nan nan nan nan nan nan nan nan nan nan nan nan nan nan 280 305 327 326 337 328 325 313 327 342 349 350 334 292 279 272 266 266 268 269 247 244 258 255 265 263 258 242 264
nan nan nan nan nan nan nan nan nan nan nan nan nan nan nan nan 307 312 318 318 315 323 327 353 351 355 357 343 285 273 269 276 271 271 270 255 250 245 255 259 262 267 264 256
nan 258 260 263 260 251 247 nan nan nan nan nan nan nan nan nan 298 324 314 308 310 332 325 341 347 346 330 333 311 275 278 286 284 288 269 258 250 257 240 246 243 260 275 289
247 nan nan 254 258 255 240 256 249 nan nan nan nan nan nan nan 235 278 308 306 nan 339 312 316 326 329 336 323 320 306 280 287 283 281 283 286 253 253 256 247 226 241 244 286
nan nan 250 nan nan nan 227 250 247 239 239 nan nan nan nan nan nan 266 279 291 302 308 313 292 300 322 327 326 295 307 298 272 281 283 280 275 276 262 251 247 238 232 248 286
nan nan nan nan nan nan nan 246 241 237 236 232 236 234 213 217 245 256 251 297 293 295 346 315 307 297 294 277 270 262 275 294 278 265 259 248 276 248 238 235 238 232 251 246
nan nan nan nan nan nan nan nan 241 nan 235 229 229 228 228 229 232 223 214 226 254 277 287 301 296 275 263 269 261 266 258 244 235 202 205 198 156 125 187 192 221 224 236 245
nan nan nan nan nan nan nan 245 239 nan nan 215 219 225 229 215 238 225 221 228 257 277 289 286 285 264 266 257 263 260 235 225 199 189 180 171 166 178 179 192 222 228 233 239
nan nan nan nan nan nan 244 234 241 nan nan 220 221 219 221 224 216 239 252 240 243 245 292 313 296 267 260 253 256 259 248 237 213 211 212 215 220 219 218 221 223 238 251 262
nan nan nan nan nan nan 237 241 247 243 234 226 221 219 218 220 211 227 211 243 248 221 253 297 299 278 253 252 254 256 248 240 239 240 241 243 246 238 242 249 235 241 257 266
nan nan 259 nan nan nan 250 253 250 252 240 220 217 213 216 218 232 227 211 200 258 269 283 275 291 267 249 254 258 264 243 253 254 250 249 247 251 255 258 263 267 261 265 265
nan nan nan nan nan nan nan 246 247 241 nan 222 221 222 212 218 220 229 nan 163 177 219 237 249 279 256 243 245 255 262 256 256 256 253 255 257 259 257 260 260 264 268 269 271
nan nan nan nan nan nan nan 248 264 241 233 221 nan 227 nan 221 210 223 225 188 190 236 265 251 244 227 251 245 242 245 247 248 247 248 248 252 250 254 251 252 259 269 278 286
nan nan nan nan nan nan 193 218 248 249 225 228 nan nan nan nan 214 215 234 229 nan nan 246 242 217 239 238 241 244 248 246 254 250 245 241 244 247 244 247 264 273 264 270 258